Philadelphia, PA

3:50 PM EST on December 06, 2016 (GMT -0500)
Philadelphia International

Weather History for KPHL - August, 2012

Change the Weather History Date:

Tuesday, August 28, 2012

  Actual Average Record
Temperature  
Mean Temperature 82 °F 75 °F  
Max Temperature 89 °F 84 °F 99 °F (1948)
Min Temperature 74 °F 66 °F 49 °F (1986)
Degree Days  
Heating Degree Days 0 0  
Month to date heating degree days 0 0  
Since 1 June heating degree days 7 11  
Since 1 July heating degree days 0 0  
Cooling Degree Days 17 10  
Month to date cooling degree days 392 332  
Year to date cooling degree days 1353 1089  
Since 1 June cooling degree days 1189 998  
Growing Degree Days 32 (Base 50)    
Moisture  
Dew Point 68 °F    
Average Humidity 65    
Maximum Humidity 94    
Minimum Humidity 36    
Precipitation  
Precipitation 0.17 in 0.09 in 2.33 in (1978)
Month to date precipitation 5.37 3.20  
Year to date precipitation 20.91 27.72  
Snow  
Snow 0.00 in 0.00 in 0.00 in ()
Month to date snowfall 0.0 0.0  
Since 1 June snowfall 0.0 0.0  
Since 1 July snowfall 0.0 0.0  
Snow Depth 0.00 in    
Sea Level Pressure  
Sea Level Pressure 29.90 in    
Wind  
Wind Speed 10 mph (West)    
Max Wind Speed 17 mph    
Max Gust Speed 24 mph    
Visibility 9 miles    
Events Rain    
T = Trace of Precipitation, MM = Missing Value Source: NWS Daily Summary

Daily Weather History Graph

Daily Weather History Graph

Search for Another Location

Airport or City:

Trip Planner

Search our weather history database for the weather conditions in past years. The results will help you decide how hot, cold, wet, or windy it might be!

Date:

Astronomy

Aug. 28, 2012 Rise Set
Actual Time 6:25 AM EDT 7:37 PM EDT
Civil Twilight 5:57 AM EDT 8:05 PM EDT
Nautical Twilight 5:24 AM EDT 8:38 PM EDT
Astronomical Twilight 4:49 AM EDT 9:13 PM EDT
Moon 5:38 PM EDT (8/28) 3:12 AM EDT (8/28)
Length of Visible Light 14h 08m
Length of Day
13h 12m
Waxing Gibbous, 90% of the Moon is Illuminated
Aug 28
Waxing Gibbous
Aug 31
Full
Sep 8
Last Quarter
Sep 15
New
Sep 22
First Quarter

Hourly Weather History & Observations

Time (EDT) Temp. Heat Index Dew Point Humidity Pressure Visibility Wind Dir Wind Speed Gust Speed Precip Events Conditions
12:54 AM 77.0 °F - 73.0 °F 88% 29.96 in 10.0 mi SSW 6.9 mph - N/A   Mostly Cloudy
1:54 AM 75.9 °F - 72.0 °F 87% 29.94 in 10.0 mi South 8.1 mph - N/A   Overcast
2:54 AM 75.9 °F - 72.0 °F 87% 29.92 in 10.0 mi SSW 9.2 mph - N/A   Overcast
3:54 AM 75.9 °F - 73.0 °F 91% 29.90 in 10.0 mi SSW 9.2 mph - N/A   Overcast
3:59 AM 75.2 °F - 73.4 °F 94% 29.90 in 10.0 mi SSW 11.5 mph - N/A   Overcast
4:02 AM 75.2 °F - 73.4 °F 94% 29.90 in 10.0 mi SSW 12.7 mph - N/A   Overcast
4:54 AM 77.0 °F - 73.0 °F 88% 29.91 in 10.0 mi SW 12.7 mph - 0.00 in   Overcast
5:54 AM 75.9 °F - 73.9 °F 94% 29.90 in 8.0 mi SW 12.7 mph - 0.05 in Rain Rain
5:56 AM 75.2 °F - 73.4 °F 94% 29.90 in 6.0 mi SW 11.5 mph - 0.00 in Rain Light Rain
6:08 AM 75.2 °F - 73.4 °F 94% 29.90 in 6.0 mi WSW 13.8 mph - 0.01 in Rain Light Rain
6:14 AM 77.0 °F - 73.4 °F 89% 29.90 in 4.0 mi WSW 13.8 mph - 0.02 in Rain Rain
6:23 AM 75.2 °F - 73.4 °F 94% 29.90 in 5.0 mi SW 11.5 mph - 0.04 in Rain Light Rain
6:54 AM 75.0 °F - 71.1 °F 87% 29.89 in 6.0 mi SW 9.2 mph - 0.07 in Rain Rain
7:38 AM 75.2 °F - 71.6 °F 89% 29.90 in 7.0 mi SW 9.2 mph - 0.05 in Rain Light Rain
7:50 AM 75.2 °F - 71.6 °F 89% 29.90 in 10.0 mi SW 9.2 mph - 0.05 in   Overcast
7:54 AM 75.9 °F - 72.0 °F 87% 29.90 in 10.0 mi SW 11.5 mph - 0.05 in   Overcast
8:54 AM 77.0 °F - 73.0 °F 88% 29.90 in 10.0 mi WSW 11.5 mph - N/A   Overcast
9:54 AM 78.1 °F - 71.1 °F 79% 29.91 in 10.0 mi West 13.8 mph - N/A   Mostly Cloudy
11:08 AM 80.6 °F 83.9 °F 69.8 °F 70% 29.90 in 10.0 mi WNW 12.7 mph 18.4 mph N/A   Mostly Cloudy
11:46 AM 82.4 °F 86.3 °F 69.8 °F 66% 29.90 in 10.0 mi NNW 15.0 mph - N/A   Scattered Clouds
11:54 AM 82.9 °F 85.4 °F 66.9 °F 58% 29.90 in 10.0 mi NNW 12.7 mph - N/A   Scattered Clouds
12:54 PM 84.0 °F 86.5 °F 66.9 °F 56% 29.88 in 10.0 mi WNW 9.2 mph - N/A   Scattered Clouds
1:54 PM 87.1 °F 89.2 °F 66.0 °F 49% 29.86 in 10.0 mi NNW 12.7 mph 24.2 mph N/A   Scattered Clouds
2:54 PM 88.0 °F 87.6 °F 60.1 °F 39% 29.85 in 10.0 mi NW 13.8 mph - N/A   Scattered Clouds
3:54 PM 88.0 °F 86.9 °F 57.9 °F 36% 29.85 in 10.0 mi NW 12.7 mph - N/A   Scattered Clouds
4:54 PM 88.0 °F 87.1 °F 59.0 °F 37% 29.86 in 10.0 mi NW 13.8 mph - N/A   Scattered Clouds
5:54 PM 87.1 °F 86.1 °F 57.9 °F 37% 29.87 in 10.0 mi WNW 12.7 mph - N/A   Scattered Clouds
6:54 PM 86.0 °F 85.0 °F 57.9 °F 38% 29.87 in 10.0 mi NW 9.2 mph - N/A   Partly Cloudy
7:54 PM 82.9 °F 82.6 °F 57.9 °F 42% 29.88 in 10.0 mi NW 8.1 mph - N/A   Clear
8:54 PM 82.0 °F 82.1 °F 59.0 °F 45% 29.90 in 10.0 mi WNW 6.9 mph - N/A   Clear
9:54 PM 80.1 °F 80.7 °F 59.0 °F 48% 29.92 in 10.0 mi NW 6.9 mph - N/A   Clear
10:54 PM 78.1 °F - 59.0 °F 52% 29.92 in 10.0 mi NW 5.8 mph - N/A   Partly Cloudy
11:54 PM 75.0 °F - 60.1 °F 60% 29.93 in 10.0 mi NNW 5.8 mph - N/A   Partly Cloudy